This is the latest recevied weather packets stored in our database for station/object K8JMX-13. If no packets are shown the sender has not sent any weather packets the latest 10 day(s).
| Time | Temp. | Humidity | Pressure | Rain* | Wind** | Luminosity | Snow |
|---|---|---|---|---|---|---|---|
| 1778024340 | 15.56° C | 91% | 1006.4 hPa | 0 mm | - | 4 W/m² | - |
| 1778024038 | 15.56° C | 91% | 1006.4 hPa | 0 mm | - | 7 W/m² | - |
| 1778023735 | 15.56° C | 91% | 1006.5 hPa | 0 mm | - | 5 W/m² | - |
| 1778023433 | 15.56° C | 90% | 1006.6 hPa | 1.27 mm | - | 7 W/m² | - |
| 1778023129 | 15.56° C | 90% | 1006.6 hPa | 1.27 mm | - | 15 W/m² | - |
| 1778022827 | 15.56° C | 90% | 1006.8 hPa | 0 mm | - | 21 W/m² | - |
| 1778022525 | 15.56° C | 90% | 1006.7 hPa | 0 mm | - | 15 W/m² | - |
| 1778022222 | 15.56° C | 90% | 1006.7 hPa | 0 mm | - | 13 W/m² | - |
| 1778021919 | 15.56° C | 90% | 1006.9 hPa | 0 mm | - | 9 W/m² | - |
| 1778021616 | 15.56° C | 90% | 1006.8 hPa | 0 mm | - | 8 W/m² | - |
| 1778021311 | 15.56° C | 90% | 1006.8 hPa | 0 mm | - | 10 W/m² | - |
| 1778021009 | 15.56° C | 89% | 1007 hPa | 0 mm | - | 10 W/m² | - |
| 1778020706 | 15.56° C | 89% | 1006.9 hPa | 1.78 mm | - | 26 W/m² | - |
| 1778020403 | 15.56° C | 89% | 1006.9 hPa | 1.78 mm | - | 17 W/m² | - |
| 1778020099 | 15.56° C | 89% | 1007 hPa | 1.27 mm | - | 18 W/m² | - |
| 1778019795 | 15.56° C | 89% | 1007 hPa | 1.27 mm | - | 18 W/m² | - |
| 1778019493 | 15.56° C | 89% | 1007.1 hPa | 1.78 mm | - | 26 W/m² | - |
| 1778019189 | 15.56° C | 89% | 1007.1 hPa | 3.05 mm | - | 23 W/m² | - |
| 1778018886 | 15.56° C | 89% | 1007.3 hPa | 3.05 mm | - | 25 W/m² | - |
| 1778018583 | 15.56° C | 89% | 1007 hPa | 3.56 mm | - | 28 W/m² | - |
| 1778018281 | 15.56° C | 88% | 1006.9 hPa | 3.05 mm | - | 26 W/m² | - |
| 1778017979 | 15.56° C | 88% | 1007 hPa | 3.05 mm | - | 31 W/m² | - |
| 1778017676 | 15.56° C | 87% | 1006.9 hPa | 4.83 mm | - | 31 W/m² | - |
| 1778017374 | 15.56° C | 86% | 1006.9 hPa | 11.94 mm | - | 26 W/m² | - |
| 1778017071 | 15.56° C | 84% | 1006.7 hPa | 10.67 mm | - | 18 W/m² | - |
* Rain latest hour (hover to see other rain measurements)
** Current wind speed in m/s (hover to see current wind gust speed)